Location: *
(50.6089°N, 2.2719°E)
Time: 09:53:51
(UTC+00:00)

STARLINK-29 - Pass Details

Date: 18 October 2019
Orbit: 437 x 449 km, 53.0° (Epoch: 12 November)

Event Time Altitude Azimuth Distance (km) Brightness Sun altitude
Rises 19:19:24 0° 290° (WNW) 2,436 8.3 -23.8°
Reaches altitude 10° 19:21:33 10° 286° (WNW) 1,565 7.0 -24.1°
Enters shadow 19:24:05 39° 257° (WSW) 677 4.4 -24.5°
